• en Suisse
  • Liste des pays
  • À 7 jours
  • Température de l'eau
  • Carte satellitaire
  • Carte météo
  • Widgets météo
  • user-avatar
    Se connecter

    Météo par heure à Darwin

    Ce jour, 18 Juin, Lundi

    Heure Température Précipitation Vent Pression Humidité
    00:00 +26°C° 0 mm 6 m/s 761 mmHg 24%
    01:00 +26°C° 0 mm 7 m/s 761 mmHg 26%
    02:00 +24°C° 0 mm 7 m/s 761 mmHg 29%
    03:00 +23°C° 0 mm 7 m/s 760 mmHg 30%
    04:00 +23°C° 0 mm 7 m/s 761 mmHg 34%
    05:00 +23°C° 0 mm 7 m/s 761 mmHg 37%
    06:00 +22°C° 0 mm 7 m/s 761 mmHg 41%
    07:00 +23°C° 0 mm 7 m/s 761 mmHg 38%
    08:00 +24°C° 0 mm 7 m/s 761 mmHg 35%
    09:00 +27°C° 0 mm 8 m/s 761 mmHg 29%
    10:00 +29°C° 0 mm 7 m/s 761 mmHg 29%
    11:00 +32°C° 0 mm 6 m/s 761 mmHg 28%
    12:00 +34°C° 0 mm 5 m/s 760 mmHg 28%
    13:00 +35°C° 0 mm 5 m/s 760 mmHg 29%
    14:00 +35°C° 0 mm 4 m/s 759 mmHg 30%
    15:00 +36°C° 0 mm 3 m/s 759 mmHg 30%
    16:00 +35°C° 0 mm 3 m/s 759 mmHg 34%
    17:00 +33°C° 0 mm 3 m/s 759 mmHg 37%
    18:00 +30°C° 0 mm 2 m/s 759 mmHg 41%
    19:00 +30°C° 0 mm 2 m/s 759 mmHg 42%
    20:00 +29°C° 0 mm 2 m/s 760 mmHg 42%
    21:00 +28°C° 0 mm 2 m/s 760 mmHg 43%
    22:00 +27°C° 0 mm 3 m/s 760 mmHg 40%
    23:00 +27°C° 0 mm 3 m/s 760 mmHg 38%

    Demain, 19 Juin, Mardi

    Heure Température Précipitation Vent Pression Humidité
    00:00 +27°C° 0 mm 3 m/s 760 mmHg 36%
    01:00 +26°C° 0 mm 4 m/s 760 mmHg 40%
    02:00 +25°C° 0 mm 5 m/s 760 mmHg 44%
    03:00 +25°C° 0 mm 5 m/s 761 mmHg 48%
    04:00 +25°C° 0 mm 5 m/s 761 mmHg 48%
    05:00 +23°C° 0 mm 6 m/s 761 mmHg 49%
    06:00 +23°C° 0 mm 6 m/s 761 mmHg 49%
    07:00 +24°C° 0 mm 6 m/s 761 mmHg 48%
    08:00 +26°C° 0 mm 6 m/s 762 mmHg 46%
    09:00 +27°C° 0 mm 6 m/s 762 mmHg 44%
    10:00 +29°C° 0 mm 6 m/s 761 mmHg 41%
    11:00 +32°C° 0 mm 5 m/s 761 mmHg 38%
    12:00 +34°C° 0 mm 5 m/s 760 mmHg 35%
    13:00 +35°C° 0 mm 5 m/s 760 mmHg 34%
    14:00 +35°C° 0 mm 4 m/s 759 mmHg 34%
    15:00 +36°C° 0 mm 4 m/s 759 mmHg 33%
    16:00 +35°C° 0 mm 3 m/s 759 mmHg 37%
    17:00 +33°C° 0 mm 3 m/s 759 mmHg 41%
    18:00 +30°C° 0 mm 2 m/s 759 mmHg 45%
    19:00 +29°C° 0 mm 2 m/s 760 mmHg 48%
    20:00 +28°C° 0 mm 2 m/s 760 mmHg 51%
    21:00 +27°C° 0 mm 2 m/s 761 mmHg 55%
    22:00 +27°C° 0 mm 2 m/s 761 mmHg 55%
    23:00 +26°C° 0 mm 2 m/s 761 mmHg 56%

    Après-demain, 20 Juin, Mercredi

    Heure Température Précipitation Vent Pression Humidité
    00:00 +26°C° 0 mm 2 m/s 761 mmHg 57%
    01:00 +25°C° 0 mm 2 m/s 761 mmHg 54%
    02:00 +25°C° 0 mm 2 m/s 761 mmHg 51%
    03:00 +24°C° 0 mm 3 m/s 760 mmHg 49%
    04:00 +24°C° 0 mm 3 m/s 761 mmHg 52%
    05:00 +23°C° 0 mm 4 m/s 761 mmHg 56%
    06:00 +22°C° 0 mm 4 m/s 761 mmHg 59%
    07:00 +25°C° 0 mm 5 m/s 761 mmHg 57%
    08:00 +26°C° 0 mm 5 m/s 761 mmHg 56%
    09:00 +28°C° 0 mm 5 m/s 762 mmHg 54%
    10:00 +30°C° 0 mm 5 m/s 761 mmHg 49%
    11:00 +33°C° 0 mm 5 m/s 761 mmHg 44%
    12:00 +35°C° 0 mm 4 m/s 760 mmHg 40%
    13:00 +36°C° 0 mm 4 m/s 760 mmHg 39%
    14:00 +36°C° 0 mm 4 m/s 759 mmHg 39%
    15:00 +37°C° 0 mm 3 m/s 758 mmHg 38%
    16:00 +35°C° 0 mm 3 m/s 758 mmHg 42%
    17:00 +34°C° 0 mm 3 m/s 758 mmHg 46%
    18:00 +33°C° 0 mm 3 m/s 758 mmHg 50%
    19:00 +31°C° 0 mm 3 m/s 759 mmHg 54%
    20:00 +30°C° 0 mm 2 m/s 759 mmHg 58%
    21:00 +29°C° 0 mm 2 m/s 760 mmHg 62%
    22:00 +28°C° 0 mm 2 m/s 760 mmHg 62%
    23:00 +28°C° 0 mm 2 m/s 760 mmHg 61%

    21 Juin, Jeudi

    Heure Température Précipitation Vent Pression Humidité
    00:00 +28°C° 0 mm 3 m/s 760 mmHg 61%
    01:00 +27°C° 0,1 mm 3 m/s 760 mmHg 58%
    02:00 +27°C° 0,1 mm 3 m/s 760 mmHg 56%
    03:00 +26°C° 0,1 mm 4 m/s 760 mmHg 53%
    04:00 +26°C° 0 mm 4 m/s 760 mmHg 56%
    05:00 +25°C° 0 mm 4 m/s 760 mmHg 58%
    06:00 +23°C° 0 mm 5 m/s 760 mmHg 60%
    07:00 +25°C° 0 mm 5 m/s 761 mmHg 56%
    08:00 +27°C° 0 mm 6 m/s 761 mmHg 51%
    09:00 +28°C° 0 mm 6 m/s 762 mmHg 47%
    10:00 +30°C° 0 mm 6 m/s 761 mmHg 42%
    11:00 +33°C° 0 mm 5 m/s 761 mmHg 36%
    12:00 +35°C° 0 mm 5 m/s 760 mmHg 31%
    13:00 +36°C° 0 mm 5 m/s 760 mmHg 30%
    14:00 +36°C° 0 mm 4 m/s 759 mmHg 30%
    15:00 +37°C° 0 mm 4 m/s 758 mmHg 29%
    16:00 +35°C° 0 mm 4 m/s 758 mmHg 33%
    17:00 +33°C° 0 mm 3 m/s 758 mmHg 37%
    18:00 +31°C° 0 mm 3 m/s 759 mmHg 41%
    19:00 +30°C° 0 mm 3 m/s 759 mmHg 45%
    20:00 +29°C° 0 mm 2 m/s 760 mmHg 49%
    21:00 +27°C° 0 mm 2 m/s 760 mmHg 53%
    22:00 +27°C° 0 mm 2 m/s 760 mmHg 54%
    23:00 +26°C° 0 mm 2 m/s 760 mmHg 54%

    22 Juin, Vendredi

    Heure Température Précipitation Vent Pression Humidité
    00:00 +26°C° 0 mm 3 m/s 760 mmHg 55%
    01:00 +25°C° 0 mm 3 m/s 760 mmHg 54%
    02:00 +25°C° 0 mm 4 m/s 760 mmHg 52%
    03:00 +25°C° 0 mm 5 m/s 759 mmHg 51%
    04:00 +23°C° 0 mm 5 m/s 760 mmHg 54%
    05:00 +22°C° 0 mm 5 m/s 760 mmHg 56%
    06:00 +22°C° 0 mm 5 m/s 760 mmHg 59%
    07:00 +23°C° 0 mm 5 m/s 760 mmHg 52%
    08:00 +26°C° 0 mm 6 m/s 761 mmHg 45%
    09:00 +27°C° 0 mm 6 m/s 761 mmHg 38%
    10:00 +29°C° 0 mm 6 m/s 761 mmHg 33%
    11:00 +32°C° 0 mm 6 m/s 761 mmHg 28%
    12:00 +34°C° 0 mm 5 m/s 760 mmHg 23%
    13:00 +35°C° 0 mm 5 m/s 759 mmHg 23%
    14:00 +36°C° 0 mm 4 m/s 759 mmHg 23%
    15:00 +36°C° 0 mm 4 m/s 758 mmHg 22%
    16:00 +35°C° 0 mm 3 m/s 758 mmHg 26%
    17:00 +33°C° 0 mm 3 m/s 759 mmHg 30%
    18:00 +30°C° 0 mm 2 m/s 759 mmHg 34%
    19:00 +29°C° 0 mm 2 m/s 759 mmHg 37%
    20:00 +28°C° 0 mm 2 m/s 760 mmHg 40%
    21:00 +27°C° 0 mm 2 m/s 760 mmHg 43%
    22:00 +26°C° 0 mm 2 m/s 760 mmHg 42%
    23:00 +26°C° 0 mm 2 m/s 760 mmHg 41%

    23 Juin, Samedi

    Heure Température Précipitation Vent Pression Humidité
    00:00 +25°C° 0 mm 2 m/s 760 mmHg 40%
    01:00 +25°C° 0 mm 3 m/s 760 mmHg 42%
    02:00 +23°C° 0 mm 4 m/s 760 mmHg 45%
    03:00 +23°C° 0 mm 4 m/s 760 mmHg 47%
    04:00 +23°C° 0 mm 4 m/s 760 mmHg 52%
    05:00 +22°C° 0 mm 5 m/s 760 mmHg 56%
    06:00 +22°C° 0 mm 5 m/s 760 mmHg 61%
    07:00 +23°C° 0 mm 5 m/s 761 mmHg 55%
    08:00 +26°C° 0 mm 6 m/s 761 mmHg 49%
    09:00 +27°C° 0 mm 6 m/s 761 mmHg 43%
    10:00 +29°C° 0 mm 6 m/s 761 mmHg 37%
    11:00 +32°C° 0 mm 5 m/s 760 mmHg 30%
    12:00 +35°C° 0 mm 5 m/s 760 mmHg 24%
    13:00 +35°C° 0 mm 5 m/s 759 mmHg 23%
    14:00 +36°C° 0 mm 4 m/s 759 mmHg 23%
    15:00 +36°C° 0 mm 4 m/s 758 mmHg 22%
    16:00 +35°C° 0 mm 3 m/s 758 mmHg 28%
    17:00 +33°C° 0 mm 3 m/s 759 mmHg 33%
    18:00 +30°C° 0 mm 3 m/s 759 mmHg 38%
    19:00 +29°C° 0 mm 2 m/s 759 mmHg 43%
    20:00 +27°C° 0 mm 2 m/s 760 mmHg 48%
    21:00 +26°C° 0 mm 1 m/s 761 mmHg 53%
    22:00 +26°C° 0 mm 1 m/s 761 mmHg 53%
    23:00 +25°C° 0 mm 2 m/s 760 mmHg 54%
    Voir plus